TimeEDT,TemperatureF,Dew PointF,Humidity,Sea Level PressureIn,VisibilityMPH,Wind Direction,Wind SpeedMPH,Gust SpeedMPH,PrecipitationIn,Events,Conditions,WindDirDegrees,DateUTC
12:53 AM,53.1,46.0,77,29.91,10.0,South,3.5,-,N/A,,Clear,180,2012-10-18 04:53:00
1:53 AM,52.0,46.0,80,29.91,10.0,Calm,Calm,-,N/A,,Clear,0,2012-10-18 05:53:00
2:53 AM,50.0,45.0,83,29.90,10.0,Calm,Calm,-,N/A,,Clear,0,2012-10-18 06:53:00
3:53 AM,44.1,41.0,89,29.90,10.0,Calm,Calm,-,N/A,,Clear,0,2012-10-18 07:53:00
4:53 AM,44.1,41.0,89,29.90,10.0,Calm,Calm,-,N/A,,Clear,0,2012-10-18 08:53:00
5:53 AM,45.0,42.1,90,29.91,8.0,Calm,Calm,-,N/A,,Scattered Clouds,0,2012-10-18 09:53:00
6:02 AM,44.6,42.8,93,29.93,8.0,Calm,Calm,-,N/A,,Mostly Cloudy,0,2012-10-18 10:02:00
6:21 AM,44.6,41.0,87,29.92,10.0,Calm,Calm,-,N/A,,Scattered Clouds,0,2012-10-18 10:21:00
6:53 AM,45.0,42.1,90,29.92,9.0,Calm,Calm,-,N/A,,Clear,0,2012-10-18 10:53:00
7:53 AM,45.0,41.0,86,29.90,7.0,East,3.5,-,N/A,,Scattered Clouds,90,2012-10-18 11:53:00
8:15 AM,48.2,44.6,87,29.92,7.0,Calm,Calm,-,N/A,,Mostly Cloudy,0,2012-10-18 12:15:00
8:26 AM,48.2,46.4,93,29.93,7.0,Calm,Calm,-,N/A,,Scattered Clouds,0,2012-10-18 12:26:00
8:53 AM,51.1,48.0,89,29.92,10.0,Calm,Calm,-,N/A,,Scattered Clouds,0,2012-10-18 12:53:00
9:53 AM,57.0,50.0,77,29.93,10.0,Calm,Calm,-,N/A,,Mostly Cloudy,0,2012-10-18 13:53:00
10:53 AM,59.0,51.1,75,29.90,10.0,Calm,Calm,-,N/A,,Clear,0,2012-10-18 14:53:00
11:53 AM,64.9,54.0,68,29.87,10.0,SE,3.5,-,N/A,,Partly Cloudy,130,2012-10-18 15:53:00
12:53 PM,66.9,55.9,68,29.85,10.0,ENE,3.5,-,N/A,,Overcast,60,2012-10-18 16:53:00
1:01 PM,66.2,55.4,68,29.87,10.0,Calm,Calm,-,N/A,,Overcast,0,2012-10-18 17:01:00
1:50 PM,71.6,59.0,64,29.85,10.0,Variable,6.9,-,N/A,,Mostly Cloudy,0,2012-10-18 17:50:00
1:53 PM,72.0,59.0,64,29.82,10.0,SSE,3.5,-,N/A,,Mostly Cloudy,150,2012-10-18 17:53:00
2:05 PM,69.8,59.0,68,29.84,10.0,Variable,5.8,-,N/A,,Mostly Cloudy,0,2012-10-18 18:05:00
2:53 PM,72.0,60.1,66,29.80,10.0,Variable,6.9,16.1,0.00,,Mostly Cloudy,0,2012-10-18 18:53:00
3:37 PM,71.6,60.8,69,29.82,10.0,Variable,4.6,-,N/A,,Overcast,0,2012-10-18 19:37:00
3:53 PM,73.0,61.0,66,29.80,10.0,South,9.2,-,N/A,,Mostly Cloudy,190,2012-10-18 19:53:00
4:53 PM,73.0,62.1,68,29.78,10.0,Variable,4.6,-,N/A,,Scattered Clouds,0,2012-10-18 20:53:00
5:53 PM,70.0,61.0,73,29.77,10.0,Variable,3.5,-,N/A,,Scattered Clouds,0,2012-10-18 21:53:00
6:53 PM,69.1,62.1,78,29.78,10.0,SE,3.5,-,N/A,,Overcast,130,2012-10-18 22:53:00
7:53 PM,68.0,62.1,81,29.79,10.0,Calm,Calm,-,N/A,,Mostly Cloudy,0,2012-10-18 23:53:00
8:29 PM,68.0,62.6,83,29.80,10.0,Variable,3.5,-,N/A,Thunderstorm,Thunderstorm,0,2012-10-19 00:29:00
8:44 PM,68.0,62.6,83,29.80,10.0,Variable,4.6,-,N/A,,Mostly Cloudy,0,2012-10-19 00:44:00
8:53 PM,68.0,62.1,81,29.78,10.0,South,3.5,-,N/A,,Mostly Cloudy,170,2012-10-19 00:53:00
9:53 PM,66.9,62.1,84,29.77,10.0,Calm,Calm,-,N/A,,Overcast,0,2012-10-19 01:53:00
10:01 PM,66.2,62.6,88,29.77,10.0,Variable,3.5,-,N/A,Thunderstorm,Mostly Cloudy,0,2012-10-19 02:01:00
10:44 PM,66.2,60.8,83,29.81,9.0,West,10.4,17.3,0.01,Rain-Thunderstorm,Light Thunderstorms and Rain,280,2012-10-19 02:44:00
10:53 PM,64.9,61.0,87,29.78,10.0,West,3.5,17.3,0.01,Rain-Thunderstorm,Light Rain,260,2012-10-19 02:53:00
10:57 PM,64.4,60.8,88,29.80,10.0,WSW,3.5,-,0.00,Rain,Light Rain,250,2012-10-19 02:57:00
11:53 PM,64.0,61.0,90,29.75,10.0,Calm,Calm,-,0.00,,Mostly Cloudy,0,2012-10-19 03:53:00